Weather History for Ozark, AL

Change the Weather History Date:

Wednesday, July 31, 2013

  Actual Average Record
Temperature  
Mean Temperature 81 °F -  
Max Temperature 90 °F 87 °F 100 °F (2010)
Min Temperature 73 °F 69 °F 61 °F (2014)
Cooling Degree Days 16    
Growing Degree Days 31 (Base 50)    
Moisture  
Dew Point 74 °F    
Average Humidity 90    
Maximum Humidity 100    
Minimum Humidity 60    
Precipitation  
Precipitation 0.04 in - - ()
Sea Level Pressure  
Sea Level Pressure 30.07 in    
Wind  
Wind Speed 3 mph (SSE)    
Max Wind Speed 14 mph    
Max Gust Speed -    
Visibility 10 miles    
Events Rain , Thunderstorm    
Averages and records for this station are not official NWS values.
T = Trace of Precipitation, MM = Missing Value Source: NWS Daily Summary

Daily Weather History Graph

Daily Weather History Graph

Search for Another Location

Airport:

Trip Planner

Search our weather history database for the weather conditions in past years. The results will help you decide how hot, cold, wet, or windy it might be!

Date:

Astronomy

Jul. 31, 2013 Rise Set
Actual Time 5:59 AM CDT 7:38 PM CDT
Civil Twilight 5:32 AM CDT 8:05 PM CDT
Nautical Twilight 5:00 AM CDT 8:37 PM CDT
Astronomical Twilight 4:27 AM CDT 9:10 PM CDT
Moon 12:53 AM CDT (7/31) 2:53 PM CDT (7/31)
Length of Visible Light 14h 32m
Length of Day
13h 39m
Waning Crescent, 31% of the Moon is Illuminated
Jul 31
Waning Crescent
Aug 6
New
Aug 14
First Quarter
Aug 20
Full
Aug 28
Last Quarter

Hourly Weather History & Observations

Time (CDT) Temp. Heat Index Dew Point Humidity Pressure Visibility Wind Dir Wind Speed Gust Speed Precip Events Conditions
12:58 AM 75.9 °F - 74.3 °F 95% 30.12 in 10.0 mi South 2.3 mph - N/A   Scattered Clouds
1:58 AM 75.4 °F - 74.1 °F 96% 30.10 in 10.0 mi SSW 3.5 mph - N/A   Clear
2:58 AM 74.5 °F - 73.9 °F 98% 30.08 in 10.0 mi SW 1.2 mph - N/A   Mostly Cloudy
3:58 AM 74.7 °F - 74.1 °F 98% 30.07 in 10.0 mi SSE 2.3 mph - N/A   Mostly Cloudy
4:27 AM 75.2 °F - 73.4 °F 94% 30.07 in 10.0 mi ESE 1.2 mph - N/A   Scattered Clouds
4:42 AM 75.2 °F - 73.4 °F 94% 30.08 in 10.0 mi East 1.2 mph - N/A   Mostly Cloudy
4:58 AM 74.5 °F - 74.1 °F 99% 30.08 in 6.0 mi ESE 1.2 mph - N/A   Overcast
5:23 AM 75.2 °F - 75.2 °F 100% 30.09 in 9.0 mi SE 2.3 mph - N/A   Overcast
5:28 AM 75.2 °F - 75.2 °F 100% 30.09 in 10.0 mi SE 2.3 mph - N/A   Overcast
5:43 AM 75.2 °F - 75.2 °F 100% 30.10 in 10.0 mi ESE 2.3 mph - N/A   Overcast
5:58 AM 74.8 °F - 74.5 °F 99% 30.09 in 10.0 mi East 2.3 mph - N/A   Overcast
6:03 AM 75.2 °F - 75.2 °F 100% 30.10 in 10.0 mi East 2.3 mph - N/A   Overcast
6:38 AM 75.2 °F - 75.2 °F 100% 30.10 in 10.0 mi East 1.2 mph - N/A   Mostly Cloudy
6:43 AM 75.2 °F - 75.2 °F 100% 30.10 in 10.0 mi East 1.2 mph - N/A   Mostly Cloudy
6:58 AM 75.6 °F - 75.2 °F 99% 30.10 in 10.0 mi Calm Calm - N/A   Partly Cloudy
7:17 AM 77.0 °F - 75.2 °F 94% 30.11 in 10.0 mi ESE 2.3 mph - N/A   Partly Cloudy
7:58 AM 78.3 °F - 77.0 °F 96% 30.11 in 10.0 mi Variable 2.3 mph - N/A   Scattered Clouds
8:58 AM 81.9 °F 90.0 °F 77.2 °F 86% 30.12 in 10.0 mi SW 3.5 mph - N/A   Mostly Cloudy
9:43 AM 84.2 °F 94.1 °F 77.0 °F 79% 30.12 in 10.0 mi SW 5.8 mph - N/A   Mostly Cloudy
9:48 AM 84.2 °F 94.1 °F 77.0 °F 79% 30.12 in 10.0 mi SW 9.2 mph - N/A   Overcast
9:58 AM 84.0 °F 94.0 °F 77.4 °F 80% 30.12 in 10.0 mi WSW 8.1 mph - N/A   Overcast
10:03 AM 84.2 °F 94.1 °F 77.0 °F 79% 30.12 in 10.0 mi SW 6.9 mph - N/A   Overcast
10:58 AM 84.9 °F 94.5 °F 76.1 °F 75% 30.11 in 10.0 mi West 5.8 mph - N/A   Mostly Cloudy
11:58 AM 88.7 °F 97.7 °F 74.1 °F 62% 30.10 in 10.0 mi Variable 6.9 mph - N/A   Mostly Cloudy
12:58 PM 89.6 °F 98.7 °F 74.1 °F 60% 30.07 in 10.0 mi Variable 5.8 mph - N/A   Mostly Cloudy
1:58 PM 88.3 °F 95.9 °F 72.9 °F 60% 30.05 in 10.0 mi West 13.8 mph - N/A Thunderstorm Overcast
2:58 PM 81.3 °F 85.4 °F 71.2 °F 71% 30.04 in 10.0 mi NW 8.1 mph - N/A   Scattered Clouds
3:55 PM 81.3 °F 85.9 °F 72.3 °F 74% 30.04 in 10.0 mi North 5.8 mph - N/A   Mostly Cloudy
4:40 PM 80.6 °F 85.4 °F 73.4 °F 79% 30.06 in 10.0 mi Variable 3.5 mph - N/A   Light Drizzle
4:58 PM 78.3 °F - 73.2 °F 84% 30.06 in 10.0 mi Variable 5.8 mph - 0.00 in Rain Light Rain
5:58 PM 77.0 °F - 73.9 °F 90% 30.02 in 10.0 mi East 4.6 mph - 0.01 in Rain Light Rain
6:03 PM 77.0 °F - 73.4 °F 89% 30.03 in 10.0 mi East 1.2 mph - N/A Rain Light Rain
6:18 PM 77.0 °F - 73.4 °F 89% 30.02 in 10.0 mi ENE 3.5 mph - N/A Rain Light Rain
6:25 PM 77.0 °F - 73.4 °F 89% 30.03 in 10.0 mi ESE 4.6 mph - N/A   Partly Cloudy
6:58 PM 75.7 °F - 73.9 °F 94% 30.03 in 10.0 mi SSE 4.6 mph - 0.00 in   Mostly Cloudy
7:00 PM 75.2 °F - 73.4 °F 94% 30.03 in 10.0 mi SSE 4.6 mph - N/A   Light Drizzle
7:58 PM 75.2 °F - 73.6 °F 95% 30.04 in 10.0 mi South 3.5 mph - 0.01 in Rain Light Rain
8:27 PM 75.2 °F - 73.4 °F 94% 30.04 in 10.0 mi South 3.5 mph - N/A   Mostly Cloudy
8:58 PM 74.5 °F - 73.6 °F 97% 30.03 in 10.0 mi SSE 6.9 mph - 0.02 in   Mostly Cloudy
9:48 PM 75.2 °F - 73.4 °F 94% 30.04 in 10.0 mi South 3.5 mph - N/A   Mostly Cloudy
9:58 PM 74.7 °F - 73.9 °F 98% 30.03 in 10.0 mi SSE 5.8 mph - N/A   Mostly Cloudy
10:13 PM 75.2 °F - 73.4 °F 94% 30.03 in 10.0 mi SSE 3.5 mph - N/A   Scattered Clouds
10:58 PM 74.1 °F - 73.8 °F 99% 30.03 in 10.0 mi Calm Calm - N/A   Clear
10:59 PM 73.4 °F - 73.4 °F 100% 30.03 in 10.0 mi Calm Calm - N/A   Partly Cloudy
11:58 PM 73.6 °F - 73.2 °F 99% 30.03 in 10.0 mi ESE 2.3 mph - N/A   Mostly Cloudy